Regional Weather Roundup
Issued by NWS

Home | Current Version | Previous Version | Graphics & Text | Print | Product List | Glossary On
Versions: 1 2 3 4 5 6 7 8 9 10 11 12 13 14 15 16 17 18 19 20 21 22 23 24 25 26 27 28 29 30 31 32 33 34 35 36 37 38 39 40 41 42 43 44 45 46 47 48 49 50
000
ASUS43 KOAX 271910
RWRNE

WEATHER ROUNDUP FOR NEBRASKA
NATIONAL WEATHER SERVICE OMAHA NE
200 PM CDT WED MAY 27 2015

NOTES: SATELLITE DATA IS BEING USED TO AUGMENT CLOUD COVER ABOVE
       12000 FEET.
       "FAIR" INDICATES FEW OR NO CLOUDS BELOW 12,000 FEET WITH NO
       SIGNIFICANT WEATHER AND/OR OBSTRUCTIONS TO VISIBILITY.

  * THESE STATIONS DO NOT REPORT WEATHER SUCH AS RAIN...SNOW OR FOG.

NEZ001>004-019>022-054>056-272000-
NEBRASKA PANHANDLE

CITY           SKY/WX    TMP DP  RH WIND       PRES   REMARKS
SCOTTSBLUFF    MOSUNNY   70  50  49 SE5       30.00F
ALLIANCE       MOSUNNY   71  55  56 S15G23    30.01F
CHADRON        MOSUNNY   71  53  52 S8        29.97F
KIMBALL          N/A    N/A N/A N/A MISG        N/A
SIDNEY         MOSUNNY   70  57  63 SE9G23    30.05F
$$

NEZ057>060-069>072-079>082-272000-
SOUTHWEST NEBRASKA

CITY           SKY/WX    TMP DP  RH WIND       PRES   REMARKS
NORTH PLATTE   PTSUNNY   76  56  49 S17G25    30.05F
IMPERIAL       MOSUNNY   72  57  59 SE17G28   30.04F
LEXINGTON      PTSUNNY   75  54  47 S7        30.07F
MCCOOK         CLOUDY    69  57  65 SE15      30.07F
OGALLALA       CLOUDY    72  56  57 S12       30.04F
$$

NEZ005>010-023>029-035>040-094-272000-
NORTH CENTRAL NEBRASKA

CITY           SKY/WX    TMP DP  RH WIND       PRES   REMARKS
VALENTINE      CLOUDY    74  45  35 S18G30    30.04F
AINSWORTH      CLOUDY    74  49  40 S15       30.06F
BROKEN BOW     CLOUDY    76  49  38 S17G24    30.08F
O`NEILL        PTSUNNY   79  48  34 S8        30.07S
ORD            MOSUNNY   78  45  30 S14G20    30.06F
THEDFORD       PTSUNNY   75  50  42 SE16G22   30.07F
$$

NEZ041-046>049-061>064-073>077-083>087-272000-
SOUTH CENTRAL NEBRASKA

CITY           SKY/WX    TMP DP  RH WIND       PRES   REMARKS
GRAND ISLAND   MOSUNNY   79  43  27 S7        30.09S
AURORA         MOSUNNY   80  44  27 S9        30.08F
HASTINGS       PTSUNNY   78  49  35 SE12G17   30.08F
HEBRON         MOSUNNY   80  38  22 S7        30.09S
HOLDREGE       PTSUNNY   73  50  44 SE7       30.08F
KEARNEY *      PTSUNNY   79  46  31 SE10      30.08F
YORK           MOSUNNY   79  46  31 SE3       30.09S
$$

NEZ011>018-030>034-042>045-272000-
NORTHEAST NEBRASKA

CITY           SKY/WX    TMP DP  RH WIND       PRES   REMARKS
NORFOLK        SUNNY     80  50  34 SE5       30.05F
ALBION         SUNNY     78  46  31 S6        30.07F
BLAIR          SUNNY     82  44  26 S3        30.07S
COLUMBUS *     SUNNY     81  46  30 E6        30.08F
FREMONT        SUNNY     82  46  29 SW5       30.07S
TEKAMAH        SUNNY     84  51  31 S8        30.04F
WAYNE          MOSUNNY   81  51  35 CALM      30.04F
$$

NEZ050>053-065>068-078-088>093-272000-
SOUTHEAST NEBRASKA

CITY           SKY/WX    TMP DP  RH WIND       PRES   REMARKS
LINCOLN        SUNNY     81  48  31 S10       30.08F
OMAHA EPPLEY   MOSUNNY   82  49  31 SW6       30.06S
BEATRICE       SUNNY     79  46  31 S5        30.09S
FALLS CITY     SUNNY     81  52  36 S5        30.08F
NEBRASKA CITY  SUNNY     79  43  28 CALM      30.09S
PLATTSMOUTH    MOSUNNY   81  45  28 S3        30.07F
$$

NEZ044-045-051>053-067-272000-
OMAHA AREA

CITY           SKY/WX    TMP DP  RH WIND       PRES   REMARKS
OMAHA EPPLEY   MOSUNNY   82  49  31 SW6       30.06S
BLAIR          SUNNY     82  44  26 S3        30.07S
FREMONT        SUNNY     82  46  29 SW5       30.07S
MILLARD        SUNNY     81  51  35 S5        30.06S
OFFUTT AFB     SUNNY     81  52  36 SW10      30.06S
PLATTSMOUTH    MOSUNNY   81  45  28 S3        30.07F
WAHOO          FAIR      82  49  31 SW5       30.07S
$$


USA.gov is the U.S. government's official web portal to all federal, state and local government web resources and services.